EA1FBN Weather Reports


Display with metric or nautical units.
time (UTC)temp
F
wind
direction
speed
MPH
gust
MPH
rain 1hr
in
rain 24hr
in
rain mn
in
humidity
%
barometer
mb
20260507044001 44 266 2.0 5.0 0.00 0.01 0.00 64 1012.7
20260507043502 44 253 3.0 6.0 0.00 0.01 0.00 64 1012.6
20260507043002 44 243 3.0 6.0 0.00 0.01 0.00 65 1012.6
20260507042502 44 254 4.0 8.0 0.00 0.01 0.00 65 1012.6
20260507042002 44 250 4.0 7.0 0.00 0.01 0.00 65 1012.6
20260507041502 45 244 4.0 8.0 0.00 0.01 0.00 66 1012.5
20260507041002 45 255 4.0 7.0 0.00 0.01 0.00 66 1012.5
20260507040502 45 251 5.0 10.0 0.00 0.01 0.00 66 1012.6
20260507040002 45 262 4.0 9.0 0.00 0.01 0.00 66 1012.7
20260507035502 45 253 4.0 9.0 0.00 0.01 0.00 66 1012.7
20260507035002 45 257 3.0 8.0 0.00 0.01 0.00 67 1012.7
20260507034502 45 247 3.0 6.0 0.00 0.01 0.00 67 1012.8
20260507034002 45 236 3.0 7.0 0.00 0.01 0.00 67 1012.8
20260507033502 45 242 3.0 9.0 0.00 0.01 0.00 67 1012.7
20260507033002 45 248 3.0 6.0 0.00 0.01 0.00 67 1012.7
20260507032502 45 265 4.0 7.0 0.00 0.01 0.00 66 1012.7
20260507032002 45 233 4.0 10.0 0.00 0.01 0.00 67 1012.7
20260507031502 45 257 4.0 10.0 0.00 0.01 0.00 67 1012.8
20260507031002 45 229 3.0 10.0 0.00 0.01 0.00 67 1012.7
20260507030502 45 234 3.0 8.0 0.00 0.01 0.00 67 1012.7
20260507030002 46 228 3.0 8.0 0.00 0.01 0.00 68 1012.7
20260507025502 46 240 3.0 8.0 0.00 0.01 0.00 68 1012.7
20260507025002 46 253 3.0 8.0 0.00 0.01 0.00 68 1012.6
20260507024502 46 244 4.0 7.0 0.00 0.01 0.00 68 1012.7
20260507024002 46 257 4.0 10.0 0.00 0.01 0.00 68 1012.7
20260507023502 46 251 4.0 8.0 0.00 0.01 0.00 68 1012.6
20260507023002 46 238 4.0 9.0 0.00 0.01 0.00 68 1012.6
20260507022502 46 247 4.0 7.0 0.00 0.01 0.00 68 1012.7
20260507022002 46 250 4.0 10.0 0.00 0.01 0.00 68 1012.7
20260507021502 46 245 4.0 10.0 0.00 0.01 0.00 68 1012.7
20260507021002 46 264 4.0 10.0 0.00 0.01 0.00 68 1012.8
20260507020502 46 253 4.0 8.0 0.00 0.01 0.00 68 1012.7
20260507020002 46 229 5.0 10.0 0.00 0.01 0.00 69 1012.8
20260507015502 46 250 5.0 10.0 0.00 0.01 0.00 69 1012.8
20260507015002 46 245 5.0 11.0 0.00 0.01 0.00 69 1012.8
20260507014502 46 254 5.0 9.0 0.00 0.01 0.00 69 1012.8
20260507014002 46 247 5.0 10.0 0.00 0.01 0.00 69 1012.9
20260507013502 46 268 5.0 11.0 0.00 0.01 0.00 69 1012.9
20260507013002 46 260 6.0 10.0 0.00 0.01 0.00 69 1013.0
20260507012502 46 248 5.0 10.0 0.00 0.01 0.00 69 1013.0
20260507012002 46 248 5.0 9.0 0.00 0.01 0.00 69 1013.0
20260507011502 46 288 5.0 9.0 0.00 0.01 0.00 69 1013.1
20260507011002 46 264 5.0 10.0 0.00 0.01 0.00 69 1013.1
20260507010502 46 240 4.0 9.0 0.00 0.01 0.00 69 1013.1
20260507010002 46 250 4.0 9.0 0.00 0.01 0.00 69 1013.2
20260507005502 46 259 5.0 9.0 0.00 0.01 0.00 69 1013.2
20260507005002 46 250 5.0 8.0 0.00 0.01 0.00 69 1013.2
20260507004502 46 247 4.0 9.0 0.00 0.01 0.00 69 1013.3
20260507004002 46 248 4.0 8.0 0.00 0.01 0.00 69 1013.3
20260507003502 47 242 3.0 8.0 0.00 0.01 0.00 70 1013.4
20260507003002 47 243 3.0 7.0 0.00 0.01 0.00 70 1013.5
20260507002502 47 259 3.0 6.0 0.00 0.01 0.00 70 1013.5
20260507002002 47 252 3.0 7.0 0.00 0.01 0.00 70 1013.6
20260507001502 47 274 4.0 8.0 0.00 0.01 0.00 70 1013.6
20260507001002 47 246 4.0 9.0 0.00 0.01 0.00 70 1013.6
20260507000502 47 260 4.0 7.0 0.00 0.01 0.00 70 1013.6
20260507000003 47 250 4.0 10.0 0.00 0.01 0.00 71 1013.6
20260506235502 47 258 3.0 8.0 0.00 0.01 0.00 71 1013.6
20260506235002 47 246 3.0 6.0 0.00 0.01 0.00 72 1013.7
20260506234502 47 259 3.0 8.0 0.00 0.01 0.00 72 1013.7
20260506234002 47 269 3.0 8.0 0.00 0.01 0.00 72 1013.7
20260506233502 47 250 3.0 6.0 0.00 0.01 0.00 73 1013.7
20260506233002 47 242 2.0 6.0 0.00 0.01 0.00 73 1013.7
20260506232502 47 228 2.0 6.0 0.00 0.01 0.00 73 1013.6
20260506232002 47 263 2.0 7.0 0.00 0.02 0.00 73 1013.6
20260506231503 48 238 2.0 5.0 0.00 0.02 0.00 73 1013.6
20260506231002 48 244 2.0 5.0 0.00 0.02 0.00 73 1013.6
20260506230503 48 264 1.0 5.0 0.00 0.02 0.00 73 1013.7
20260506230003 48 206 1.0 7.0 0.00 0.02 0.00 74 1013.7
20260506225503 48 254 2.0 6.0 0.00 0.02 0.00 74 1013.7
20260506225003 48 243 2.0 4.0 0.00 0.02 0.00 74 1013.7
20260506224503 48 252 2.0 5.0 0.00 0.02 0.00 74 1013.8
20260506224003 48 264 2.0 5.0 0.00 0.02 0.00 74 1013.8
20260506223503 48 266 2.0 6.0 0.00 0.02 0.00 74 1013.8
20260506223003 48 244 1.0 6.0 0.00 0.02 0.00 75 1013.8
20260506222503 48 248 1.0 3.0 0.00 0.02 0.00 75 1013.8
20260506222003 48 249 1.0 4.0 0.00 0.02 0.00 75 1013.7
20260506221503 49 240 1.0 4.0 0.00 0.02 0.00 75 1013.8
20260506221003 49 273 1.0 4.0 0.00 0.02 0.00 75 1013.8
20260506220503 49 260 1.0 3.0 0.00 0.02 0.00 75 1013.8
20260506220003 50 252 2.0 5.0 0.00 0.02 0.02 74 1013.8
20260506215503 50 257 2.0 4.0 0.00 0.02 0.02 74 1013.8
20260506215003 50 254 2.0 5.0 0.00 0.02 0.02 74 1013.8
20260506214503 50 255 2.0 8.0 0.00 0.02 0.02 74 1013.8
20260506214003 50 250 1.0 5.0 0.00 0.02 0.02 73 1013.8
20260506213503 50 269 2.0 5.0 0.00 0.02 0.02 73 1013.8
20260506213003 50 246 1.0 4.0 0.00 0.02 0.02 73 1013.8
20260506212503 50 243 2.0 3.0 0.00 0.02 0.02 73 1013.9
20260506212003 51 269 3.0 6.0 0.00 0.02 0.02 73 1013.9
20260506211503 51 266 2.0 6.0 0.00 0.02 0.02 73 1013.8
20260506211003 51 256 2.0 6.0 0.00 0.02 0.02 73 1013.8
20260506210503 50 249 2.0 5.0 0.00 0.02 0.02 73 1013.9
20260506210003 50 288 2.0 5.0 0.00 0.02 0.02 73 1013.8
20260506205503 50 248 3.0 6.0 0.00 0.02 0.02 73 1013.8
20260506205003 51 250 4.0 6.0 0.00 0.02 0.02 72 1013.8
20260506204503 51 254 4.0 7.0 0.00 0.02 0.02 71 1013.8
20260506204003 52 233 4.0 8.0 0.00 0.02 0.02 69 1013.7
20260506203503 52 243 3.0 9.0 0.00 0.02 0.02 66 1013.7
20260506203003 53 236 1.0 6.0 0.00 0.02 0.02 63 1013.5
20260506202503 53 277 0.0 0.0 0.00 0.02 0.02 61 1013.4
20260506202003 53 277 0.0 0.0 0.00 0.02 0.02 60 1013.3
20260506201503 54 277 0.0 0.0 0.00 0.02 0.02 59 1013.4
20260506201003 54 277 0.0 0.0 0.00 0.02 0.02 59 1013.4
20260506200503 54 278 0.0 0.0 0.00 0.02 0.02 58 1013.3
20260506200004 55 278 0.0 0.0 0.00 0.02 0.02 56 1013.2
20260506195503 55 278 0.0 0.0 0.00 0.02 0.02 54 1013.2
20260506195003 56 278 0.0 1.0 0.00 0.02 0.02 52 1013.2
20260506194503 56 256 0.0 0.0 0.00 0.02 0.02 51 1013.2
20260506194003 56 256 0.0 1.0 0.00 0.02 0.02 51 1013.2
20260506193503 56 255 0.0 0.0 0.00 0.02 0.02 52 1013.1
20260506193003 57 203 0.0 0.0 0.00 0.02 0.02 51 1013.1
20260506192503 57 202 1.0 1.0 0.00 0.02 0.02 51 1013.0
20260506192003 58 202 1.0 3.0 0.00 0.02 0.02 49 1013.0
20260506191503 58 216 0.0 2.0 0.00 0.02 0.02 48 1013.0
20260506191003 59 179 0.0 1.0 0.00 0.02 0.02 49 1013.0
20260506190503 60 179 0.0 1.0 0.00 0.02 0.02 46 1013.0
20260506190004 60 179 0.0 0.0 0.00 0.02 0.02 45 1012.9
20260506185504 60 179 0.0 1.0 0.00 0.02 0.02 43 1012.9
20260506185003 61 179 1.0 1.0 0.00 0.02 0.02 45 1012.9
20260506184504 61 179 1.0 2.0 0.00 0.02 0.02 42 1012.8
20260506184004 61 179 1.0 1.0 0.00 0.02 0.02 43 1012.8
20260506183503 61 205 1.0 2.0 0.00 0.02 0.02 44 1012.8
20260506183004 61 236 2.0 3.0 0.00 0.02 0.02 42 1012.8
20260506182504 62 237 1.0 4.0 0.00 0.02 0.02 40 1012.9
20260506182004 63 202 0.0 3.0 0.00 0.02 0.02 38 1012.8
20260506181504 64 27 0.0 0.0 0.00 0.02 0.02 37 1012.9
20260506181004 63 27 0.0 0.0 0.00 0.02 0.02 38 1013.0
20260506180504 63 27 1.0 2.0 0.00 0.02 0.02 38 1012.9
20260506180005 62 116 1.0 2.0 0.00 0.02 0.02 40 1013.0
20260506175504 62 120 1.0 2.0 0.00 0.02 0.02 39 1013.0
20260506175004 62 166 1.0 4.0 0.00 0.02 0.02 40 1013.1
20260506174504 62 136 1.0 3.0 0.00 0.02 0.02 39 1013.1
20260506174004 62 79 1.0 2.0 0.00 0.02 0.02 39 1013.2
20260506173504 62 108 1.0 5.0 0.00 0.02 0.02 39 1013.2
20260506173004 62 60 1.0 4.0 0.00 0.02 0.02 39 1013.3
20260506172504 61 87 2.0 4.0 0.00 0.02 0.02 40 1013.3
20260506172004 60 105 3.0 7.0 0.00 0.02 0.02 40 1013.4
20260506171504 61 115 1.0 6.0 0.00 0.02 0.02 40 1013.4
20260506171004 62 122 2.0 3.0 0.00 0.02 0.02 42 1013.4
20260506170504 61 90 3.0 7.0 0.00 0.02 0.02 41 1013.4
20260506170004 61 102 3.0 6.0 0.00 0.02 0.02 40 1013.5
20260506165504 61 63 3.0 5.0 0.00 0.02 0.02 38 1013.5
20260506165004 61 142 3.0 6.0 0.00 0.02 0.02 39 1013.5
20260506164504 61 117 3.0 6.0 0.00 0.02 0.02 39 1013.5
20260506164004 61 122 4.0 7.0 0.00 0.02 0.02 39 1013.4
20260506163504 61 158 4.0 7.0 0.00 0.02 0.02 40 1013.4
20260506163004 61 111 4.0 8.0 0.00 0.02 0.02 40 1013.5
20260506162504 61 183 3.0 6.0 0.00 0.02 0.02 40 1013.6
20260506162004 61 102 3.0 7.0 0.00 0.02 0.02 40 1013.6
20260506161504 61 148 5.0 8.0 0.00 0.02 0.02 39 1013.6
20260506161004 61 60 4.0 8.0 0.00 0.02 0.02 38 1013.6
20260506160504 61 98 3.0 10.0 0.00 0.02 0.02 38 1013.6
20260506160004 61 4 3.0 6.0 0.00 0.02 0.02 40 1013.6
20260506155504 61 93 2.0 9.0 0.00 0.02 0.02 43 1013.6
20260506155004 60 251 3.0 7.0 0.00 0.02 0.02 41 1013.7
20260506154504 60 138 4.0 9.0 0.00 0.02 0.02 42 1013.7
20260506154004 60 138 3.0 6.0 0.00 0.02 0.02 41 1013.7
20260506153504 60 73 2.0 5.0 0.00 0.02 0.02 43 1013.8
20260506153004 60 279 2.0 4.0 0.00 0.02 0.02 44 1013.8
20260506152504 60 220 2.0 5.0 0.00 0.02 0.02 43 1013.9
20260506152004 61 209 1.0 4.0 0.00 0.02 0.02 42 1014.0
20260506151504 61 291 1.0 3.0 0.00 0.02 0.02 42 1014.0
20260506151004 60 356 1.0 3.0 0.00 0.02 0.02 46 1014.0
20260506150504 60 334 1.0 3.0 0.00 0.02 0.02 43 1014.1
20260506150004 61 326 1.0 4.0 0.00 0.02 0.02 43 1014.2
20260506145504 60 43 1.0 3.0 0.00 0.02 0.02 45 1014.2
20260506145004 59 98 2.0 6.0 0.00 0.02 0.02 43 1014.3
20260506144504 59 137 2.0 4.0 0.00 0.02 0.02 46 1014.3
20260506144004 59 342 2.0 4.0 0.00 0.02 0.02 45 1014.4
20260506143504 58 87 2.0 5.0 0.00 0.02 0.02 47 1014.5
20260506143004 58 129 2.0 4.0 0.00 0.02 0.02 48 1014.5
20260506142504 58 113 3.0 4.0 0.00 0.02 0.02 49 1014.6
20260506142004 58 115 4.0 6.0 0.00 0.02 0.02 50 1014.7
20260506141504 58 109 5.0 9.0 0.00 0.02 0.02 48 1014.7
20260506141004 59 96 4.0 8.0 0.00 0.02 0.02 49 1014.7
20260506140504 59 79 4.0 8.0 0.00 0.02 0.02 50 1014.8
20260506140005 58 79 5.0 8.0 0.00 0.02 0.02 48 1014.8
20260506135504 59 89 5.0 11.0 0.00 0.02 0.02 50 1014.8
20260506135004 59 91 3.0 11.0 0.00 0.02 0.02 49 1014.9
20260506134504 59 111 3.0 5.0 0.00 0.02 0.02 50 1014.9
20260506134004 59 69 3.0 7.0 0.00 0.02 0.02 48 1015.0
20260506133504 59 65 3.0 7.0 0.00 0.02 0.02 50 1015.1
20260506133004 59 100 3.0 6.0 0.00 0.02 0.02 52 1015.1
20260506132504 58 47 3.0 9.0 0.00 0.02 0.02 50 1015.1
20260506132005 58 81 2.0 8.0 0.00 0.02 0.02 52 1015.1
20260506131505 58 156 1.0 8.0 0.00 0.02 0.02 52 1015.2
20260506131005 58 153 1.0 1.0 0.00 0.02 0.02 52 1015.2
20260506130505 57 125 3.0 5.0 0.00 0.02 0.02 50 1015.3
20260506130005 57 147 3.0 6.0 0.00 0.02 0.02 53 1015.3
20260506125505 56 150 3.0 7.0 0.00 0.02 0.02 58 1015.3
20260506125005 56 229 1.0 6.0 0.00 0.02 0.02 56 1015.4
20260506124505 56 162 1.0 1.0 0.00 0.02 0.02 55 1015.4
20260506124005 56 141 3.0 8.0 0.00 0.02 0.02 54 1015.5
20260506123505 56 250 3.0 5.0 0.00 0.02 0.02 53 1015.5
20260506123005 56 156 3.0 7.0 0.00 0.02 0.02 56 1015.5
20260506122505 56 131 3.0 5.0 0.00 0.02 0.02 57 1015.6
20260506122005 56 156 2.0 6.0 0.00 0.02 0.02 57 1015.7
20260506121505 57 158 2.0 5.0 0.00 0.02 0.02 56 1015.6
20260506121005 56 210 2.0 4.0 0.00 0.02 0.02 58 1015.7
20260506120505 56 176 3.0 4.0 0.00 0.02 0.02 58 1015.8
20260506120005 57 175 2.0 8.0 0.00 0.02 0.02 58 1015.8
20260506115505 55 184 2.0 5.0 0.00 0.02 0.02 59 1015.9
20260506115005 55 179 3.0 5.0 0.00 0.02 0.02 58 1015.9
20260506114505 56 178 3.0 8.0 0.00 0.02 0.02 56 1015.9
20260506114005 56 65 2.0 6.0 0.00 0.02 0.02 54 1016.0
20260506113505 57 287 2.0 4.0 0.00 0.02 0.02 56 1016.0
20260506113005 56 356 2.0 5.0 0.00 0.02 0.02 57 1016.1
20260506112505 55 99 3.0 8.0 0.00 0.02 0.02 58 1016.1
20260506112005 55 110 3.0 7.0 0.00 0.02 0.02 59 1016.1
20260506111505 55 128 2.0 7.0 0.00 0.02 0.02 58 1016.2
20260506111005 55 110 2.0 4.0 0.00 0.02 0.02 58 1016.1
20260506110505 54 49 3.0 4.0 0.00 0.02 0.02 60 1016.1
20260506110005 54 160 3.0 7.0 0.00 0.02 0.02 60 1016.3
20260506105505 54 132 2.0 8.0 0.00 0.02 0.02 61 1016.2
20260506105005 54 71 2.0 6.0 0.00 0.02 0.02 63 1016.2
20260506104505 53 116 2.0 5.0 0.00 0.02 0.02 64 1016.2
20260506104005 53 208 2.0 5.0 0.00 0.02 0.02 62 1016.2
20260506103505 53 230 3.0 6.0 0.00 0.02 0.02 62 1016.2
20260506103005 53 211 2.0 7.0 0.00 0.02 0.02 63 1016.2
20260506102505 54 240 1.0 10.0 0.00 0.02 0.02 64 1016.3
20260506102005 53 75 0.0 3.0 0.00 0.02 0.02 66 1016.3
20260506101505 52 249 1.0 2.0 0.00 0.02 0.02 68 1016.3
20260506101005 52 257 1.0 3.0 0.00 0.02 0.02 69 1016.4
20260506100505 52 266 1.0 3.0 0.00 0.02 0.02 69 1016.5
20260506100005 52 256 1.0 3.0 0.00 0.02 0.02 72 1016.5
20260506095505 51 79 2.0 3.0 0.00 0.02 0.02 71 1016.5
20260506095005 51 242 2.0 5.0 0.01 0.02 0.02 73 1016.6
20260506094505 51 200 1.0 5.0 0.01 0.02 0.02 75 1016.6
20260506094005 50 333 1.0 3.0 0.01 0.02 0.02 52 1016.6
20260506093505 49 238 0.0 3.0 0.01 0.02 0.02 45 1016.6
20260506093005 49 310 0.0 3.0 0.01 0.02 0.02 43 1016.6
20260506092505 48 327 1.0 2.0 0.01 0.02 0.02 43 1016.6
20260506092005 48 340 1.0 2.0 0.01 0.02 0.02 44 1016.7
20260506091505 48 328 0.0 2.0 0.01 0.02 0.02 44 1016.7
20260506091005 47 322 0.0 1.0 0.01 0.02 0.02 45 1016.8
20260506090505 47 274 0.0 3.0 0.01 0.02 0.02 45 1016.8
20260506090005 47 240 0.0 2.0 0.01 0.02 0.02 45 1016.8
20260506085505 46 268 1.0 2.0 0.01 0.02 0.02 45 1016.8
20260506085005 46 349 1.0 3.0 0.00 0.01 0.01 46 1016.7
20260506084505 46 268 1.0 4.0 0.00 0.01 0.01 46 1016.7
20260506084005 45 324 0.0 3.0 0.00 0.01 0.01 47 1016.7
20260506083505 44 301 1.0 2.0 0.00 0.01 0.01 47 1016.6
20260506083006 44 290 1.0 4.0 0.00 0.01 0.01 47 1016.6
20260506082506 44 264 0.0 2.0 0.00 0.01 0.01 47 1016.6
20260506082006 43 281 1.0 2.0 0.00 0.01 0.01 48 1016.6
20260506081506 43 338 1.0 3.0 0.00 0.01 0.01 48 1016.7
20260506081006 42 304 1.0 3.0 0.00 0.01 0.01 49 1016.7
20260506080506 42 277 1.0 3.0 0.00 0.01 0.01 49 1016.7
20260506073506 40 329 0.0 1.0 0.00 0.01 0.01 50 1016.7
20260506073006 40 92 0.0 1.0 0.00 0.01 0.01 51 1016.7
20260506072506 40 340 0.0 1.0 0.00 0.01 0.01 51 1016.7
20260506072006 39 337 0.0 1.0 0.00 0.02 0.01 51 1016.8
20260506071506 39 328 0.0 1.0 0.00 0.02 0.01 51 1016.7
20260506071006 39 328 0.0 2.0 0.00 0.02 0.01 52 1016.6
20260506070506 39 347 0.0 2.0 0.00 0.02 0.01 52 1016.7
20260506062506 37 83 1.0 3.0 0.00 0.02 0.01 53 1016.4
20260506062006 38 136 0.0 3.0 0.00 0.02 0.01 53 1016.4
20260506061506 37 129 1.0 3.0 0.00 0.02 0.01 54 1016.4
20260506061006 37 96 1.0 3.0 0.00 0.02 0.01 54 1016.4
20260506060506 37 106 0.0 3.0 0.00 0.02 0.01 54 1016.4
20260506051006 38 91 0.0 1.0 0.00 0.02 0.01 55 1016.0
20260506050506 38 114 0.0 0.0 0.00 0.02 0.01 55 1015.9
20260506045006 38 114 0.0 0.0 0.00 0.02 0.01 55 1016.0
20260506044506 38 114 0.0 0.0 0.00 0.02 0.01 55 1016.0